Regional Weather Roundup
Issued by NWS Upton, NY

Current Version | Previous Version | Graphics & Text | Print | Product List | Glossary Off
Versions: 1 2 3 4 5 6 7 8 9 10 11 12 13 14 15 16 17 18 19 20 21 22 23 24 25 26 27 28 29 30 31 32 33 34 35 36 37 38 39 40 41 42 43 44 45 46 47 48 49 50

000
ASUS41 KOKX 281307
RWROKX

REGIONAL WEATHER ROUNDUP
NATIONAL WEATHER SERVICE NEW YORK NY
900 AM EDT TUE APR 28 2015

NOTE: "FAIR" INDICATES FEW OR NO CLOUDS BELOW 12,000 FEET WITH NO
SIGNIFICANT WEATHER AND/OR OBSTRUCTIONS TO VISIBILITY.

NYZ071-072-176-178-NJZ106-104-281400-
NEW YORK CITY METRO AREA


CITY           SKY/WX    TMP DP  RH WIND       PRES   REMARKS
CENTRAL PARK   SUNNY     56  35  45 NE15G24   29.82S
LAGUARDIA APRT MOSUNNY   54  36  50 N20G33    29.79S
KENNEDY INTL   MOSUNNY   56  35  45 N20G29    29.80R
NEWARK/LIBERTY MOSUNNY   56  37  49 N13       29.81R
BRNX BOT. GARD   N/A     54  36  50 W9        29.82S
TETERBORO      MOSUNNY   57  35  43 N14G21    29.79S
$$

NYZ177-179-078>081-281400-
LONG ISLAND NEW YORK

CITY           SKY/WX    TMP DP  RH WIND       PRES   REMARKS
FARMINGDALE    MOSUNNY   53  37  54 N13G24    29.79R
ISLIP          MOSUNNY   53  37  54 N21       29.76R
SHIRLEY        MOSUNNY   53  38  56 N20G28    29.78R
WESTHAMPTON    CLOUDY    51  39  63 NE8       29.79R
MONTAUK POINT    N/A     49  38  65 N10       29.77R
$$

NYZ052-065-067-281400-
HUDSON VALLEY

CITY           SKY/WX    TMP DP  RH WIND       PRES   REMARKS
WHITE PLAINS   MOSUNNY   53  36  52 N18G25    29.79R
NEWBURGH       SUNNY     50  39  66 NE12G20   29.82R
MONTGOMERY     MOSUNNY   56  39  53 NE7       29.80S
POUGHKEEPSIE   SUNNY     54  37  52 N13G24    29.81S
ALBANY         MOSUNNY   50  35  56 N16G22    29.86R
$$

NJZ001-105-106-008-010-013-015-019>022-104-281400-
NEW JERSEY

CITY           SKY/WX    TMP DP  RH WIND       PRES   REMARKS
NEWARK/LIBERTY MOSUNNY   56  37  49 N13       29.81R
TETERBORO      MOSUNNY   57  35  43 N14G21    29.79S
CALDWELL       SUNNY     55  37  50 VRB6      29.82R
MORRISTOWN     PTSUNNY   55  37  50 N15       29.82R
SOMERVILLE     SUNNY     56  38  50 N10G18    29.81R
SUSSEX         MOSUNNY   54  38  54 N13G23    29.82S
ANDOVER          N/A     53  39  59 N10G23    29.82S
TRENTON        SUNNY     55  37  50 N13G25    29.82R
MILLVILLE      MOSUNNY   57  41  55 N14       29.84R
ATLANTIC CITY  MOSUNNY   56  40  55 N16       29.82R
WRIGHTSTOWN    SUNNY     56  40  54 NW15      29.80R
TOMS RIVER     SUNNY     54  39  58 N14G20    29.82R
BELMAR         SUNNY     54  36  50 N16       29.80S
$$

PAZ047>061-062-071-281400-
EASTERN PENNSYLVANIA

CITY           SKY/WX    TMP DP  RH WIND       PRES   REMARKS
PHILADELPHIA   MOSUNNY   56  39  53 N15G23    29.85R
ALLENTOWN      MOSUNNY   55  40  56 N14G23    29.86R
SCRANTON       CLOUDY    49  39  68 NW13G18   29.88R
$$

CTZ002-004>006-009-010-012-RIZ004-006-007-MAZ004-011-015-281400-
SOUTHERN NEW ENGLAND
 IN CT

CITY           SKY/WX    TMP DP  RH WIND       PRES   REMARKS
BRADLEY INTL   PTSUNNY   51  33  50 N15       29.77S
HARTFORD       PTSUNNY   53  35  50 N20G26    29.77S
DANBURY        SUNNY     52  35  52 N12       29.80R
WTRBRY/OXFORD  MOSUNNY   48  36  61 N16       29.79R
BRIDGEPORT     MOSUNNY   55  37  50 N16G23    29.78R
MERIDEN        MOSUNNY   54  34  46 N10       29.77S
NEW HAVEN      MOSUNNY   53  36  52 N16G24    29.77R
CHESTER        FAIR      48  34  57 N13G23    29.76S
GROTON         CLOUDY    47  36  65 N16       29.76S
WILLIMANTIC    CLOUDY    49  38  65 NE3       29.77S

 IN RI

CITY           SKY/WX    TMP DP  RH WIND       PRES   REMARKS
PROVIDENCE     PTSUNNY   50  37  61 N14G30    29.76S
BLOCK ISLAND   CLOUDY    46  37  71 N14G21    29.75R
WESTERLY       CLOUDY    48  36  63 N10G21    29.76R

 IN MA

CITY           SKY/WX    TMP DP  RH WIND       PRES   REMARKS
BOSTON         PTSUNNY   46  33  60 N16G29    29.77R
WORCESTER      CLOUDY    44  38  79 N14G21    29.75R
WESTFIELD      MOSUNNY   52  33  48 N14G26    29.78R
PROVINCETOWN   PTSUNNY  N/A N/A N/A N17G24    29.73R
NANTUCKET      CLOUDY    45  35  68 N21G38    29.70R
$$

ANZ330-335-338-340-345-350-353-355-281400-
COASTAL MARINE OBSERVATIONS


STATION/POSITION TIME  SKY/WX   TEMP    WIND        PRES    VSBY  WAVE
                                AIR SEA DIR/SP/G                  HT/PER
                 (UTC)          (F)     (DEG/KT/KT) (MB)    (MI)  (FT/S)
NY HARB ENTRANCE 1250            50 47  350/ 14/ 16 1008.6          2/10
4S FIRE IS       1203               44                N/A           2/11
20S FIRE ISLAND  1250            46 44  340/ 10/ 12 1008.6          2/ 4
23SW MTP         1250            44 43   10/ 12/ 14 1007.6          2/ 4
HUDSON CANYON    NOT AVBL
EXECUTION ROCKS  NOT AVBL
WESTERN LI SOUND NOT AVBL
CENTRAL LI SOUND NOT AVBL
EASTERN LI SOUND 1200            46     360/ 10/ 14   N/A
ROBBINS REEF     1206            52     350/ 12/ 16 1007.9
$$


>>>>>>>>>>>>>>>>>>>>>>>>>>>> KEY <<<<<<<<<<<<<<<<<<<<<<<<<<<
>                                                          <
>     SKY/WX - SKY CONDITION/PRESENT WEATHER               <
>     TMP    - TEMPERATURE IN FAHRENHEIT                   <
>     DP     - DEWPOINT IN FAHRENHEIT                      <
>     RH     - RELATIVE HUMIDITY IN PERCENT                <
>     WIND   - DIRECTION AND SPEED IN MPH                  <
>     PRES   - MEAN SEA LEVEL PRESSURE IN INCHES OF HG     <
>     WCI    - WIND CHILL INDEX                            <
>     VSB    - VISIBILITY IN MILES                         <
>     HX     - HEAT INDEX                                  <
>     TC     - TEMPERATURE IN CELSIUS                      <
>     VRB    - VARIABLE WIND DIRECTION                     <
>                                                          <
>>>>>>>>>>>>>>>>>>>>>>>>>>>> KEY <<<<<<<<<<<<<<<<<<<<<<<<<<<





USA.gov is the U.S. government's official web portal to all federal, state and local government web resources and services.